Time,TemperatureF,DewpointF,PressureIn,WindDirection,WindDirectionDegrees,WindSpeedMPH,WindSpeedGustMPH,Humidity,HourlyPrecipIn,Conditions,Clouds,dailyrainin,SoftwareType,DateUTC
2014-08-21 00:14:00,59.0,-99.9,-100.00,North,-999,-999.0,-999.0,-999,0.00,,,0.00,,2014-08-21 04:14:00,
2014-08-21 00:24:00,59.0,-99.9,-100.00,North,-999,-999.0,-999.0,-999,0.00,,,0.00,,2014-08-21 04:24:00,
2014-08-21 01:13:00,58.0,-99.9,-100.00,North,-999,-999.0,-999.0,-999,0.00,,,0.00,,2014-08-21 05:13:00,
2014-08-21 01:23:00,58.0,-99.9,-100.00,North,-999,-999.0,-999.0,-999,0.00,,,0.00,,2014-08-21 05:23:00,
2014-08-21 01:30:00,57.0,-99.9,-100.00,North,-999,-999.0,-999.0,-999,0.00,,,0.00,,2014-08-21 05:30:00,
2014-08-21 02:12:00,57.0,-99.9,-100.00,North,-999,-999.0,-999.0,-999,0.00,,,0.00,,2014-08-21 06:12:00,
2014-08-21 02:22:00,57.0,-99.9,-100.00,North,-999,-999.0,-999.0,-999,0.00,,,0.00,,2014-08-21 06:22:00,
2014-08-21 02:30:00,56.0,-99.9,-100.00,North,-999,-999.0,-999.0,-999,0.00,,,0.00,,2014-08-21 06:30:00,
2014-08-21 03:12:00,56.0,-99.9,-100.00,North,-999,-999.0,-999.0,-999,0.00,,,0.00,,2014-08-21 07:12:00,
2014-08-21 03:30:00,56.0,-99.9,-100.00,North,-999,-999.0,-999.0,-999,0.00,,,0.00,,2014-08-21 07:30:00,
2014-08-21 04:12:00,56.0,-99.9,-100.00,North,-999,-999.0,-999.0,-999,0.00,,,0.00,,2014-08-21 08:12:00,
2014-08-21 04:23:00,56.0,-99.9,-100.00,North,-999,-999.0,-999.0,-999,0.00,,,0.00,,2014-08-21 08:23:00,
2014-08-21 04:53:00,57.0,-99.9,-100.00,North,-999,-999.0,-999.0,-999,0.00,,,0.00,,2014-08-21 08:53:00,
2014-08-21 05:03:00,57.0,-99.9,-100.00,North,-999,-999.0,-999.0,-999,0.00,,,0.00,,2014-08-21 09:03:00,
2014-08-21 05:22:00,57.0,-99.9,-100.00,North,-999,-999.0,-999.0,-999,0.00,,,0.00,,2014-08-21 09:22:00,
2014-08-21 05:30:00,57.0,-99.9,-100.00,North,-999,-999.0,-999.0,-999,0.00,,,0.00,,2014-08-21 09:30:00,
2014-08-21 06:13:00,57.0,-99.9,-100.00,North,-999,-999.0,-999.0,-999,0.00,,,0.00,,2014-08-21 10:13:00,
2014-08-21 06:24:00,57.0,-99.9,-100.00,North,-999,-999.0,-999.0,-999,0.00,,,0.00,,2014-08-21 10:24:00,
2014-08-21 07:23:00,57.0,-99.9,-100.00,North,-999,-999.0,-999.0,-999,0.00,,,0.00,,2014-08-21 11:23:00,
2014-08-21 07:53:00,58.0,-99.9,-100.00,North,-999,-999.0,-999.0,-999,0.00,,,-99.99,,2014-08-21 11:53:00,
2014-08-21 08:03:00,58.0,-99.9,-100.00,North,-999,-999.0,-999.0,-999,0.00,,,-99.99,,2014-08-21 12:03:00,
2014-08-21 08:23:00,58.0,-99.9,-100.00,North,-999,-999.0,-999.0,-999,0.00,,,-99.99,,2014-08-21 12:23:00,
2014-08-21 08:30:00,60.0,-99.9,-100.00,North,-999,-999.0,-999.0,-999,0.00,,,0.00,,2014-08-21 12:30:00,
2014-08-21 09:22:00,60.0,-99.9,-100.00,North,-999,-999.0,-999.0,-999,0.00,,,0.00,,2014-08-21 13:22:00,
2014-08-21 09:30:00,62.0,-99.9,-100.00,North,-999,-999.0,-999.0,-999,0.00,,,0.00,,2014-08-21 13:30:00,
2014-08-21 10:13:00,62.0,-99.9,-100.00,North,-999,-999.0,-999.0,-999,0.00,,,0.00,,2014-08-21 14:13:00,
2014-08-21 10:30:00,66.0,-99.9,-100.00,North,-999,-999.0,-999.0,-999,0.00,,,0.00,,2014-08-21 14:30:00,
2014-08-21 11:13:00,66.0,-99.9,-100.00,North,-999,-999.0,-999.0,-999,0.00,,,0.00,,2014-08-21 15:13:00,
2014-08-21 11:55:00,68.0,-99.9,-100.00,North,-999,-999.0,-999.0,-999,0.00,,,0.00,,2014-08-21 15:55:00,
2014-08-21 12:04:00,68.0,-99.9,-100.00,North,-999,-999.0,-999.0,-999,0.00,,,0.00,,2014-08-21 16:04:00,
2014-08-21 12:30:00,64.0,-99.9,-100.00,North,-999,-999.0,-999.0,-999,0.02,,,0.02,,2014-08-21 16:30:00,
2014-08-21 13:24:00,64.0,-99.9,-100.00,North,-999,-999.0,-999.0,-999,0.02,,,0.02,,2014-08-21 17:24:00,
2014-08-21 13:30:00,62.0,-99.9,-100.00,North,-999,-999.0,-999.0,-999,0.04,,,0.06,,2014-08-21 17:30:00,
2014-08-21 14:13:00,62.0,-99.9,-100.00,North,-999,-999.0,-999.0,-999,0.04,,,0.06,,2014-08-21 18:13:00,
2014-08-21 14:23:00,62.0,-99.9,-100.00,North,-999,-999.0,-999.0,-999,0.04,,,0.06,,2014-08-21 18:23:00,
2014-08-21 14:30:00,64.0,-99.9,-100.00,North,-999,-999.0,-999.0,-999,0.01,,,0.07,,2014-08-21 18:30:00,
2014-08-21 15:12:00,64.0,-99.9,-100.00,North,-999,-999.0,-999.0,-999,0.01,,,0.07,,2014-08-21 19:12:00,